RH
13 11 10 10 9 8 9 8 9 8 7 7 6 6 6 6 6 6 6 5 5 4 4 3 7 19 21 15 17 16 15 16 17 35 41 17 4 7 6 5 6 8 11 11 13 16 15 15 15 23 29 28 29 27 26 30 26 26 36 38 38 39 36 33 34 36 40 45 50 51 51 58 59 58 57 56 60 64 68 70 69 70 68 71 75 77 81 84
15 15 11 10 10 9 8 8 8 8 8 7 7 7 6 6 6 6 6 5 5 4 4 4 6 19 22 15 18 17 18 24 32 45 32 8 6 8 6 5 6 9 11 13 15 15 13 16 19 23 26 21 23 23 22 25 23 29 38 37 38 39 32 28 28 30 36 44 48 49 50 52 56 60 56 60 68 67 75 78 75 81 81 77 76 78 81 83
17 18 16 11 10 9 9 8 9 9 8 8 7 7 6 6 6 6 6 5 6 4 4 4 4 18 22 17 17 16 30 40 33 26 13 9 11 7 8 9 9 11 12 13 13 12 12 15 16 18 22 19 21 22 20 22 22 28 33 34 38 33 27 28 26 27 34 39 46 49 48 49 53 55 53 61 70 70 78 82 82 89 89 83 79 78 80 83
34 20 19 16 11 10 10 8 8 9 8 8 7 7 7 6 6 6 6 5 6 4 4 4 3 15 22 18 15 19 40 39 15 8 8 11 11 9 12 11 13 14 13 13 13 13 13 14 16 18 20 20 23 22 20 26 25 24 27 31 33 27 25 27 25 26 32 36 44 48 48 52 52 50 53 60 69 73 74 74 78 85 87 84 81 78 80 84
59 30 22 20 15 12 11 9 9 9 8 8 8 8 7 7 6 5 6 5 6 5 4 4 3 12 22 18 14 24 35 19 4 9 8 7 9 10 11 9 12 15 15 15 15 15 14 15 18 20 22 21 23 21 19 25 23 21 24 26 27 26 24 25 25 27 32 38 44 46 48 51 49 50 55 58 67 70 64 64 70 76 80 81 80 78 80 84
70 43 29 24 20 16 12 11 9 8 8 8 7 8 7 7 6 5 6 5 6 5 4 5 3 12 22 16 19 29 24 9 6 8 6 8 10 9 9 8 11 16 17 15 15 15 16 17 16 18 23 22 21 19 19 20 19 21 22 22 25 24 23 25 26 29 34 39 43 45 45 47 49 54 55 56 63 61 55 60 66 71 74 76 77 78 81 85
66 44 33 29 26 22 15 11 10 9 8 8 8 7 6 6 5 5 5 5 6 5 4 4 4 13 20 19 28 32 22 14 10 7 9 13 12 10 8 8 13 17 18 16 16 16 19 20 17 21 25 22 21 18 18 17 16 20 19 20 23 23 24 25 27 30 33 37 40 41 44 47 51 55 54 56 59 57 57 61 64 69 71 73 76 78 80 83
72 49 34 29 27 25 19 13 10 10 8 8 7 6 6 6 5 5 4 5 5 4 5 3 7 16 20 23 26 24 21 17 11 9 12 13 12 11 10 15 20 19 18 18 16 17 19 20 18 22 23 21 20 17 15 14 15 19 18 21 23 24 26 25 26 30 32 35 38 42 46 48 48 51 54 57 60 59 60 62 65 69 71 73 76 78 80 82
87 70 45 28 26 25 18 14 11 10 10 8 7 6 6 5 5 5 4 5 4 5 5 4 12 19 23 28 23 20 19 13 14 14 12 11 12 15 17 24 26 20 20 17 14 16 14 15 19 19 20 20 17 14 14 14 14 17 19 24 26 27 26 25 28 30 32 35 38 43 47 48 47 49 54 58 61 61 62 64 66 70 73 75 76 77 80 82
96 92 69 35 26 26 17 13 12 10 10 8 7 6 5 5 5 4 4 4 5 6 5 8 18 24 32 33 22 23 18 9 15 14 10 12 13 18 20 24 25 19 20 17 14 14 10 13 19 19 19 19 15 14 15 12 13 18 25 29 29 29 27 27 31 32 34 36 38 44 49 50 46 48 57 61 60 61 64 68 68 70 74 74 74 76 78 80
97 98 88 52 31 28 18 12 12 10 10 9 7 6 5 5 4 4 4 5 9 8 7 14 20 27 39 35 22 23 16 9 14 11 10 13 13 17 17 21 23 17 16 18 16 11 9 15 17 17 17 15 14 15 14 12 17 25 29 32 33 31 30 31 34 36 36 38 39 42 49 50 46 48 58 62 60 61 67 70 70 71 74 73 73 75 79 79
97 95 94 68 39 31 22 14 12 9 9 8 6 6 5 5 4 6 7 11 14 11 13 22 26 34 42 34 25 21 13 11 13 12 13 13 15 17 16 19 20 16 15 18 17 9 9 15 14 13 15 13 14 15 12 13 23 29 29 35 37 33 34 34 36 36 35 40 41 41 52 55 48 51 57 61 60 62 68 71 71 72 73 74 73 76 79 77
98 94 96 75 43 35 29 17 12 10 9 7 6 6 4 5 6 8 14 20 20 18 22 27 32 42 43 33 24 16 12 15 15 16 15 14 18 17 16 18 17 16 14 14 15 10 8 14 12 11 14 13 13 12 12 14 24 30 30 36 39 38 40 36 35 38 37 41 38 38 57 63 52 54 59 60 61 64 70 72 71 73 73 74 74 76 79 76
98 98 97 73 45 40 35 22 14 10 7 7 6 5 5 7 9 16 27 30 27 27 28 30 39 49 46 32 21 16 17 20 18 18 16 16 18 16 16 17 16 16 14 12 11 8 10 14 12 10 11 13 11 11 14 18 25 32 33 37 43 44 43 37 36 40 40 42 36 37 58 62 53 57 60 59 60 65 71 72 71 73 73 73 74 76 78 76
96 97 84 59 43 42 39 29 18 11 9 7 5 5 8 9 16 31 38 35 34 32 31 37 48 53 51 38 22 18 20 20 18 17 17 18 17 14 15 15 16 16 13 14 11 9 11 12 11 11 11 11 11 13 18 21 24 31 38 43 45 44 43 37 36 39 40 42 36 36 54 59 54 58 60 58 60 64 70 71 71 72 72 72 73 74 76 74
97 92 69 42 34 35 38 33 19 12 10 6 5 7 9 16 30 44 41 36 38 36 41 52 54 49 45 35 22 17 20 20 17 15 17 19 16 13 14 14 15 15 14 15 12 10 10 10 12 13 12 11 13 18 21 22 25 31 42 47 44 43 46 41 35 33 35 42 39 36 52 61 57 57 58 58 60 64 69 71 70 72 71 71 72 72 73 74
99 94 73 41 26 25 29 27 18 16 11 6 8 8 14 29 43 46 39 38 40 44 53 59 56 48 36 26 21 19 21 20 15 15 16 16 17 14 12 14 15 15 15 13 11 12 12 11 13 13 14 15 16 19 20 23 31 35 38 43 40 39 46 44 36 32 31 39 42 42 54 60 57 58 58 57 59 63 68 70 69 70 70 70 70 70 72 73
99 99 85 53 28 21 23 20 17 16 10 7 10 11 26 45 51 48 46 47 46 49 55 56 52 40 27 22 23 20 19 18 15 15 15 14 18 16 12 13 15 15 14 12 12 13 12 13 14 13 15 16 15 18 21 24 32 35 33 36 36 34 41 44 37 33 33 38 41 45 51 56 57 58 58 57 57 62 66 66 66 67 68 68 69 69 69 71
99 99 94 67 36 25 23 18 16 15 11 11 9 13 35 51 53 52 55 59 50 37 34 42 43 30 22 23 22 18 16 17 16 15 15 14 17 17 12 10 12 13 13 13 13 13 13 14 16 15 15 16 15 15 18 20 25 30 30 30 32 34 38 39 34 31 33 39 43 44 48 55 60 60 58 56 56 60 63 63 64 64 65 66 66 67 67 68
100 98 96 73 42 30 24 17 15 12 15 19 10 14 30 38 42 41 44 50 42 27 20 28 34 29 26 23 19 18 16 16 17 16 15 14 15 17 13 9 11 13 14 15 14 13 13 14 17 17 15 16 16 14 14 17 22 24 25 26 27 32 35 33 29 29 32 38 43 44 47 55 59 59 57 54 55 59 60 61 62 62 62 63 63 64 64 65
100 97 90 68 45 31 21 18 14 11 23 27 16 19 26 26 32 32 31 34 28 27 27 24 27 27 24 20 18 19 18 19 20 18 16 14 14 17 16 11 11 13 15 15 13 12 14 16 17 16 14 13 15 16 15 18 20 20 21 24 25 29 32 30 28 31 32 35 44 48 51 55 56 57 54 52 55 57 57 58 59 59 58 59 60 61 61 61
99 95 83 70 54 30 18 17 11 16 28 24 22 32 33 27 26 24 29 32 25 25 28 25 26 26 22 20 19 19 21 24 21 17 17 15 15 17 17 13 12 15 14 13 13 13 16 17 14 14 14 12 15 18 17 17 17 18 22 24 25 28 30 27 27 33 32 32 43 50 50 52 52 53 52 51 54 53 51 52 53 55 56 57 57 58 58 58
100 92 83 79 62 31 16 13 15 29 31 28 42 46 33 26 18 15 27 34 28 24 25 25 27 27 25 23 21 21 25 27 22 17 17 16 17 17 15 13 13 13 13 13 15 16 18 16 13 14 13 12 16 19 18 16 16 18 25 27 27 29 28 26 29 34 33 34 44 49 54 57 52 51 52 48 49 49 47 47 48 50 53 54 53 54 55 57
96 89 90 83 67 42 16 11 27 38 28 30 46 40 28 24 16 19 32 34 30 28 26 23 22 24 24 20 19 23 26 26 24 19 16 16 17 16 14 13 13 12 12 14 14 16 17 15 13 13 13 12 15 20 19 18 19 18 21 26 28 28 27 28 32 33 35 38 42 48 58 64 56 52 54 48 45 47 45 46 48 48 49 50 50 51 53 54
87 80 87 79 78 60 16 13 39 35 21 26 33 33 28 19 15 24 36 38 32 28 25 21 21 21 18 18 20 23 25 25 25 20 16 15 15 16 14 13 13 13 12 13 14 15 15 14 13 13 14 13 14 20 19 18 21 18 17 20 23 25 27 32 34 33 38 41 40 43 52 64 66 57 52 50 48 48 47 47 48 49 50 50 51 51 51 51
74 65 75 77 86 70 26 23 39 30 25 27 26 30 23 13 20 28 36 46 38 25 23 20 20 17 15 21 23 22 24 24 23 20 15 14 13 14 15 14 15 15 14 13 15 16 13 12 13 13 15 14 13 17 17 18 21 21 20 17 16 22 28 33 34 36 44 44 38 36 44 64 73 59 49 51 51 49 49 48 47 48 51 52 51 50 49 49
65 53 64 73 84 85 65 45 42 42 31 18 18 21 13 14 25 24 32 50 41 26 26 22 18 15 14 22 21 18 21 20 19 19 17 15 11 11 15 16 14 13 12 13 14 14 13 12 12 13 14 16 16 16 17 18 19 23 22 15 15 22 29 33 32 34 40 42 40 38 42 55 60 52 48 50 52 52 50 49 48 47 49 52 51 49 49 48
57 43 55 72 78 87 86 66 70 71 31 8 17 14 11 21 29 29 34 43 34 24 25 22 17 13 14 19 18 17 19 16 16 18 17 14 11 11 15 16 13 12 11 12 14 13 12 11 11 12 13 15 17 19 20 16 16 22 19 14 14 17 25 31 30 33 38 39 47 50 44 46 56 61 55 49 51 53 51 48 47 47 48 49 51 49 48 48
53 40 47 67 70 69 76 77 79 59 16 11 21 9 14 28 30 37 39 33 25 19 19 18 14 13 17 20 19 17 17 15 15 16 15 14 12 12 15 15 12 12 11 10 14 13 9 11 11 10 11 13 15 18 19 14 15 18 14 14 18 20 27 31 31 36 39 40 48 53 45 41 55 66 58 51 53 51 46 45 44 44 46 48 50 50 48 49
50 34 36 64 78 71 81 81 52 20 10 21 18 7 21 33 31 40 45 33 22 18 16 15 14 14 18 21 21 19 16 16 15 13 13 14 13 11 12 13 10 11 11 9 12 11 9 12 14 11 12 11 11 15 16 14 14 13 12 14 20 31 41 48 52 45 41 46 47 45 43 38 46 62 61 52 47 44 41 42 42 43 45 46 49 49 48 49
44 27 28 59 80 82 87 67 24 9 18 19 12 13 27 40 42 45 46 31 19 20 18 16 18 15 16 19 20 20 17 17 16 13 14 14 13 12 12 14 12 11 12 9 11 12 9 10 11 13 17 13 8 12 13 13 13 12 16 16 17 34 46 53 57 44 41 52 45 39 43 41 44 54 55 46 37 36 37 38 39 41 43 45 47 48 48 49
37 24 22 34 55 74 68 34 14 19 20 14 18 26 28 34 41 43 42 29 19 22 21 19 20 16 16 18 17 19 18 17 16 14 15 16 16 15 14 18 17 14 18 18 13 13 11 9 9 10 15 12 8 12 12 12 13 13 19 19 19 32 37 40 50 46 48 52 41 37 43 46 48 41 39 42 38 35 34 33 34 36 39 42 44 47 48 48
31 21 18 16 32 54 38 16 26 32 24 22 29 38 38 36 39 37 32 26 21 21 20 19 19 16 16 16 15 18 18 18 17 15 15 15 17 17 14 17 16 14 25 26 14 13 13 10 9 7 10 12 10 12 13 16 16 13 18 20 22 30 31 37 52 52 49 47 38 37 42 49 53 40 32 34 33 33 33 31 31 33 37 39 41 45 47 48
28 18 18 14 22 34 25 28 46 44 39 37 31 36 39 39 46 41 28 22 21 20 19 19 18 16 16 14 15 17 17 19 18 14 16 15 17 20 16 15 14 13 22 23 16 15 15 14 13 9 9 11 10 10 13 18 17 14 18 19 22 32 32 35 46 45 42 42 37 38 48 54 47 35 32 30 25 29 32 30 30 34 37 36 37 43 47 48
26 16 18 20 22 29 34 41 50 52 50 36 24 30 32 30 39 41 34 27 22 21 20 18 18 17 17 18 18 16 15 19 18 14 16 17 17 20 17 15 15 14 17 20 20 17 14 16 16 11 10 9 9 11 12 14 14 14 18 17 17 25 26 26 39 49 46 41 39 42 52 55 40 28 32 35 31 29 29 32 34 36 39 38 38 43 47 50
28 19 23 29 30 41 53 49 47 54 46 23 17 25 25 24 28 32 36 29 21 23 22 20 21 20 22 24 22 17 13 17 19 16 17 17 16 17 17 14 14 13 13 17 23 20 15 18 17 11 11 10 9 12 10 10 14 16 16 17 19 18 19 23 32 43 41 35 43 45 40 38 34 28 30 33 32 29 29 33 33 36 42 41 41 44 47 50
57 54 51 46 43 54 64 55 51 56 39 13 13 24 21 20 23 29 32 24 19 22 23 25 25 22 23 24 24 20 15 16 18 19 22 20 16 16 15 14 13 12 12 13 19 20 17 21 20 12 9 10 10 11 10 9 13 17 14 16 19 15 21 32 33 38 39 35 42 42 32 29 33 38 39 32 28 27 28 29 31 38 45 42 40 43 46 49
91 91 76 58 53 63 66 58 57 53 30 8 16 33 30 17 16 23 23 18 18 19 22 26 25 22 23 23 25 21 15 17 18 20 24 21 19 17 14 14 13 11 11 10 14 17 16 19 22 16 10 11 10 9 10 10 9 13 14 14 16 17 25 31 30 33 34 35 41 38 34 36 35 38 37 28 26 27 25 29 32 36 43 41 39 42 45 47
96 87 59 48 57 65 63 62 60 42 19 9 14 27 29 19 16 20 18 15 17 18 21 24 22 21 22 22 23 19 15 18 19 19 20 20 21 19 13 13 12 11 12 10 12 17 16 16 21 20 12 10 11 10 10 11 9 10 13 12 14 20 26 24 25 29 28 36 44 33 30 42 38 30 26 21 25 26 23 30 33 33 37 38 37 41 44 46
93 70 40 41 52 55 57 61 56 29 11 16 17 15 22 21 18 20 18 14 15 17 20 23 22 21 21 20 21 20 17 18 18 18 19 19 20 18 13 12 12 12 12 10 13 16 15 15 19 21 16 12 14 14 10 10 12 11 13 14 13 16 22 20 23 32 33 38 45 33 32 44 38 28 24 19 22 24 24 29 31 31 33 33 35 40 43 45
93 60 39 48 50 48 53 53 46 28 19 27 25 15 17 19 17 17 16 15 15 15 17 20 21 21 20 20 19 19 18 18 18 18 18 17 16 16 14 11 11 12 11 13 13 12 15 19 19 17 15 15 16 16 12 10 11 12 11 14 14 14 19 19 22 32 32 33 42 37 31 33 32 32 27 20 22 26 27 28 28 31 32 32 35 39 42 44
83 44 30 49 56 51 47 47 54 50 40 37 30 21 19 21 20 16 14 16 15 13 15 16 17 18 17 17 19 18 18 20 20 19 19 17 15 15 14 12 12 11 12 14 12 13 21 24 20 16 16 16 15 14 14 10 9 10 10 11 12 13 17 16 20 31 28 28 39 36 25 26 39 47 37 29 36 39 39 38 33 32 35 35 37 38 40 43
84 57 37 45 56 54 47 51 64 64 52 43 37 32 27 23 25 21 16 17 15 13 16 15 16 18 16 16 18 18 19 21 20 19 18 17 14 13 12 11 11 11 12 12 12 19 24 21 19 18 18 17 13 14 16 13 11 10 10 12 11 12 14 13 23 33 28 28 34 29 27 36 56 72 63 54 59 55 48 47 39 36 40 41 39 39 40 43
92 86 69 57 54 51 51 56 63 66 63 52 42 38 33 27 30 28 22 21 18 15 15 13 13 16 16 16 16 17 20 21 21 18 17 17 17 16 15 13 13 13 12 13 16 18 20 23 23 20 19 19 17 16 15 13 13 14 14 13 11 13 15 16 26 28 22 29 31 25 31 39 53 71 68 57 60 56 48 48 43 41 44 44 42 42 43 43
91 89 83 70 54 48 52 51 50 59 63 56 49 46 40 36 34 31 29 28 23 19 18 16 15 15 15 17 17 18 19 19 21 22 23 23 23 23 23 22 20 14 11 19 22 15 16 25 24 20 23 25 22 22 22 22 21 19 17 13 11 13 12 17 26 21 22 35 35 31 37 37 40 49 45 42 50 50 48 50 47 44 45 45 44 44 44 45
93 88 79 69 54 46 48 45 43 52 58 60 61 53 44 41 37 31 30 31 27 23 21 20 18 17 16 17 18 19 19 19 20 24 28 28 26 27 28 27 26 21 22 30 28 22 26 28 21 19 23 22 22 28 34 32 21 15 15 12 12 13 11 19 27 23 31 41 38 44 46 29 25 32 31 38 47 46 48 51 49 46 45 45 45 44 44 45
100 94 77 71 69 57 49 46 50 57 59 61 66 59 48 45 42 37 34 32 31 27 23 23 21 21 22 20 19 20 20 20 21 24 26 25 28 32 29 27 29 33 42 39 27 26 30 23 19 23 22 16 17 21 28 27 15 11 15 11 11 14 12 18 22 23 38 38 30 53 60 30 20 28 29 36 44 44 49 50 47 46 44 44 47 48 48 48
96 92 71 70 81 73 59 56 62 68 63 62 66 60 51 46 43 41 36 30 30 29 26 28 24 20 21 20 20 23 24 26 27 29 29 30 36 38 30 26 28 32 39 33 23 24 23 17 19 21 19 17 15 15 21 21 14 13 14 12 12 15 14 16 18 23 35 27 17 42 58 34 21 27 26 30 35 35 40 44 44 44 45 46 48 48 49 49
86 89 74 71 81 79 71 67 70 74 65 61 68 64 55 48 43 40 34 30 36 36 32 36 34 27 27 27 28 31 33 33 31 32 36 36 38 38 31 28 29 28 27 26 28 25 18 23 28 17 14 18 13 13 18 18 16 14 13 14 13 13 15 14 15 21 26 22 17 32 47 36 23 23 22 26 32 35 39 44 44 43 45 48 48 46 47 47
86 90 85 86 88 82 79 73 70 69 58 57 71 69 55 48 46 46 42 38 42 40 38 44 46 41 40 43 43 39 35 34 31 34 40 37 33 37 38 34 32 30 27 26 29 24 19 36 43 21 15 20 14 14 17 14 17 15 11 15 13 12 17 13 13 23 26 23 24 32 43 39 28 27 29 32 41 44 44 46 44 44 48 50 48 46 44 45
87 88 87 97 96 84 82 76 67 67 63 64 71 66 56 54 52 52 51 41 36 38 40 45 47 46 47 51 52 44 35 36 36 36 37 34 31 34 37 35 32 32 34 33 31 29 25 37 42 24 17 22 15 14 17 14 16 16 12 15 15 14 17 14 16 27 27 25 30 37 39 33 28 32 35 38 42 40 38 43 44 46 52 50 46 46 47 49
85 87 85 94 97 85 83 81 70 65 63 62 64 59 57 57 51 51 56 47 36 35 37 39 42 47 53 52 48 41 35 36 36 33 33 34 35 33 30 32 32 30 37 37 34 38 34 29 34 30 25 27 18 12 17 16 15 19 18 14 13 15 17 14 16 25 28 27 30 30 25 24 30 35 34 35 39 35 35 42 43 44 50 50 47 49 51 53
Wind_Speed
20 21 22 23 23 23 24 25 26 26 26 25 25 25 24 25 25 25 25 25 25 25 25 26 24 18 17 18 18 19 22 23 24 17 10 22 29 25 23 21 17 15 11 7 5 6 3 2 3 8 8 5 2 1 2 2 2 3 3 2 1 4 5 7 10 7 6 8 10 8 7 9 8 6 4 7 7 7 7 4 5 5 6 10 15 24 25 24
21 21 21 23 24 24 24 25 26 27 26 27 26 26 26 25 25 25 25 25 25 25 24 25 23 18 17 18 18 19 21 22 19 15 19 25 25 24 25 20 17 18 14 8 7 9 7 3 5 6 5 2 1 1 0 1 2 3 3 2 3 5 5 7 11 8 8 11 11 9 9 8 7 9 6 7 7 6 7 5 6 8 8 12 19 25 23 23
22 22 21 22 23 24 25 26 26 27 27 28 27 28 27 26 26 26 25 25 25 25 23 24 23 18 16 17 17 18 18 15 10 12 15 11 7 8 9 9 12 17 15 9 8 10 9 7 7 6 4 1 1 1 1 1 2 2 4 2 5 6 4 5 11 10 10 14 13 11 9 6 5 7 6 8 9 5 6 6 7 9 10 12 16 20 22 21
23 23 22 21 23 24 25 26 27 27 28 28 28 29 29 28 28 27 26 26 25 24 23 23 22 17 15 16 16 16 13 7 5 5 5 6 5 3 3 8 9 14 16 9 6 9 10 7 6 4 4 1 2 1 0 2 2 1 4 4 6 5 4 5 12 11 10 14 15 12 9 7 6 5 6 12 10 2 6 8 7 12 15 15 15 17 20 19
23 23 23 22 22 24 25 26 27 27 28 29 29 29 30 30 29 28 27 27 26 24 23 22 21 17 14 14 14 13 8 4 4 1 8 15 14 13 14 16 14 14 15 10 9 11 9 6 5 4 4 1 1 2 2 4 3 2 3 6 5 6 5 6 11 11 11 11 12 13 11 9 7 5 9 14 10 5 8 9 9 13 15 16 16 17 17 16
23 23 23 23 23 24 25 26 27 27 28 29 30 30 30 31 30 30 28 28 27 25 23 21 19 15 12 12 10 6 2 2 9 10 15 21 19 16 14 14 13 15 17 14 12 11 6 4 4 3 3 1 2 2 5 3 3 2 5 4 7 7 6 7 10 12 14 12 13 14 10 9 8 5 9 10 4 4 6 11 12 14 16 18 17 15 14 14
24 24 23 24 24 25 26 26 27 28 29 30 30 31 31 31 31 31 30 29 28 26 23 21 17 12 10 10 6 2 3 7 19 19 17 19 16 14 12 10 12 20 21 15 10 8 6 6 4 4 4 2 2 3 3 2 0 4 5 4 7 7 9 10 12 13 15 16 13 11 10 12 11 8 9 5 3 3 10 12 13 14 18 19 16 13 13 14
25 25 24 25 26 26 27 27 28 29 30 30 31 31 31 31 31 31 32 30 28 26 23 20 14 9 8 6 2 2 1 10 20 15 13 17 14 11 9 4 15 22 20 15 11 7 6 7 5 4 4 1 4 3 1 2 2 5 6 4 5 6 10 12 13 14 13 11 10 11 12 11 8 8 8 3 1 7 12 13 13 15 16 15 15 14 13 12
26 25 25 26 27 28 28 28 29 30 31 32 32 32 32 32 31 32 32 30 28 25 23 17 9 5 5 3 3 3 7 7 8 7 12 19 16 10 4 7 18 20 16 14 13 9 5 5 5 5 4 3 4 3 1 2 3 5 5 3 7 7 11 14 13 13 11 8 10 14 10 5 6 8 4 2 5 10 12 14 14 15 14 13 13 14 13 12
27 26 26 27 28 28 29 30 31 32 32 33 33 32 32 32 32 32 30 30 27 23 21 12 4 3 2 1 3 3 9 6 5 8 13 19 16 9 1 9 17 17 13 10 11 9 5 5 5 4 5 2 3 3 1 1 3 3 3 4 8 10 10 13 13 11 10 8 13 15 8 6 8 6 2 4 8 11 13 14 13 14 14 13 11 11 12 12
27 28 27 27 29 28 30 31 32 33 34 34 34 32 32 32 32 30 29 30 25 20 16 7 4 4 4 3 3 6 9 8 9 12 16 19 16 9 3 7 15 16 14 8 7 10 8 7 6 3 3 2 2 1 1 3 1 5 9 9 8 9 8 10 13 11 8 6 9 12 8 5 4 1 3 9 11 13 15 14 14 14 12 12 12 10 10 11
28 28 28 28 29 29 30 32 33 33 34 35 34 33 32 32 31 30 29 27 21 15 9 4 5 7 4 2 7 13 15 14 15 17 19 19 15 9 4 4 11 14 13 9 8 13 11 6 6 3 2 3 1 1 2 2 3 5 9 11 6 8 8 7 10 11 10 6 8 12 8 4 5 4 5 10 12 13 14 14 13 12 11 11 11 9 8 10
28 28 28 29 30 30 31 33 33 34 35 35 34 33 32 30 29 29 26 21 15 10 5 3 5 7 3 2 9 16 19 17 19 20 19 16 12 6 4 4 6 9 10 10 9 13 13 8 4 2 3 4 1 1 1 3 5 3 6 8 6 7 5 5 5 8 8 8 13 12 3 6 8 4 7 11 12 14 13 12 12 10 10 9 9 9 8 11
28 28 29 30 30 31 33 34 34 34 34 35 35 33 30 29 28 24 19 14 8 4 1 4 6 6 3 6 13 16 15 14 16 18 15 11 8 4 6 6 5 7 8 10 7 7 11 9 3 2 1 2 1 1 4 5 4 5 6 4 3 5 6 6 4 8 8 7 12 7 2 7 7 5 10 12 13 16 14 13 12 10 9 9 9 9 9 10
29 29 29 30 31 32 34 35 36 35 34 35 35 31 29 28 23 16 11 6 3 2 3 5 6 5 0 9 13 11 8 8 11 13 11 8 9 4 5 8 8 7 8 9 7 3 6 8 3 2 2 1 3 4 4 3 3 3 5 1 1 3 7 6 5 8 8 9 7 3 1 4 4 7 10 11 13 15 14 13 12 11 11 10 9 9 9 9
29 29 30 31 32 34 35 37 37 36 35 35 33 29 29 23 14 9 5 2 4 5 6 5 5 4 1 6 6 5 4 4 8 11 11 7 9 6 6 8 7 7 7 6 7 4 3 5 2 2 2 2 4 5 4 3 2 2 3 5 4 2 6 5 4 4 4 9 7 0 3 2 1 7 10 11 13 12 12 12 13 12 12 11 9 9 9 9
29 29 31 31 32 35 36 38 38 37 37 34 31 28 23 13 6 4 1 4 4 6 6 3 4 2 4 6 5 5 3 5 10 13 15 12 9 8 8 7 4 5 4 2 5 4 1 2 1 0 2 3 3 5 5 3 3 2 2 4 4 3 6 5 4 4 3 8 8 3 5 3 3 10 11 12 13 12 11 12 13 12 11 10 10 9 9 10
30 30 32 31 32 35 36 39 38 38 38 32 27 25 15 5 3 1 3 5 4 5 3 1 2 1 5 4 3 5 6 10 16 17 17 12 6 10 7 5 5 7 4 2 2 3 1 0 2 2 2 3 3 5 5 5 6 7 4 4 3 3 6 7 6 7 9 9 7 4 4 3 5 11 12 12 13 12 12 12 12 12 12 11 10 10 10 11
31 31 31 31 34 35 36 39 37 38 38 28 23 18 7 4 4 1 2 4 3 2 2 2 3 1 5 6 6 10 12 13 15 13 8 3 4 8 5 4 7 8 5 2 1 3 3 2 3 4 3 3 5 6 6 7 8 10 7 5 6 4 6 8 4 5 12 10 6 6 6 6 9 12 13 13 13 12 11 11 10 11 11 10 10 10 10 11
32 32 31 32 35 35 37 37 36 38 32 23 24 15 3 5 4 2 3 2 4 5 6 7 5 4 8 10 8 9 12 9 6 5 2 1 5 7 3 3 5 5 4 5 3 2 4 4 3 5 7 7 9 9 8 7 8 9 6 4 6 5 5 6 3 3 10 9 7 6 5 7 11 13 14 13 12 12 11 11 10 11 10 10 11 11 12 12
32 32 31 34 36 37 38 36 36 36 22 17 21 9 1 3 2 3 7 7 9 9 11 13 11 10 12 12 9 4 6 4 4 6 6 4 6 6 1 2 5 1 3 4 2 1 4 6 7 8 10 10 9 9 7 7 7 7 7 5 6 5 5 5 2 4 7 7 4 5 6 7 9 12 12 12 13 14 15 14 13 13 12 11 12 13 13 12
32 31 33 35 37 39 37 35 37 28 13 16 17 3 2 2 2 4 4 7 9 10 14 14 11 13 16 19 18 6 1 3 7 9 6 5 5 4 2 3 6 4 3 1 2 3 3 5 9 9 8 7 6 6 8 7 6 5 4 5 5 5 4 3 2 4 5 3 3 4 6 4 4 8 11 13 16 15 14 14 13 13 12 11 12 13 13 11
31 32 33 35 39 39 36 37 33 15 11 21 15 1 3 2 8 9 1 5 9 7 10 11 9 11 12 14 14 8 5 5 6 9 4 9 4 5 5 4 6 5 2 4 5 6 4 6 8 7 7 8 5 4 8 6 4 4 4 5 3 4 5 3 3 5 3 1 2 5 3 2 0 4 8 12 13 10 10 11 10 11 13 14 15 13 13 13
32 32 32 36 40 38 37 35 19 6 19 27 12 3 4 5 16 11 1 4 7 5 7 10 8 8 9 9 9 13 6 6 6 7 7 11 4 3 6 5 6 5 4 6 6 6 5 6 5 9 8 9 6 4 7 6 3 3 4 6 3 4 7 4 4 5 2 3 2 6 4 5 3 7 8 9 9 8 8 10 10 10 12 12 12 11 12 13
33 32 33 37 38 39 39 26 7 11 30 23 3 6 3 13 18 7 3 2 5 6 4 5 3 5 8 6 11 11 4 4 7 6 8 12 8 3 3 4 4 5 6 6 6 5 7 5 6 10 7 8 7 5 6 7 5 3 5 7 7 7 7 8 10 8 3 2 3 5 2 6 4 8 10 7 9 11 8 10 13 12 12 11 9 11 12 12
35 34 35 37 36 40 33 11 8 25 27 7 6 2 9 20 16 1 4 3 4 5 2 1 1 3 5 5 7 5 3 3 9 10 7 11 13 7 3 2 1 5 6 5 4 3 5 4 7 8 7 8 7 5 6 8 6 3 6 9 9 8 8 11 13 9 4 4 4 6 5 5 4 7 10 8 10 13 10 11 14 13 12 11 10 11 11 11
36 35 38 38 35 36 21 7 19 25 10 2 3 8 16 20 8 4 2 5 4 4 1 2 0 1 3 5 7 6 3 5 4 8 8 11 10 5 5 4 1 3 4 4 2 3 5 6 6 7 7 7 6 5 6 8 8 4 6 9 10 8 9 12 12 8 5 2 1 4 4 1 4 6 8 10 9 11 12 14 14 13 14 14 13 13 13 13
37 37 39 37 35 30 14 12 19 12 5 9 11 14 20 15 2 6 3 2 4 2 1 2 1 2 0 3 7 6 4 3 2 4 9 15 10 3 5 8 6 6 4 6 5 4 4 8 9 8 6 4 5 6 8 10 6 6 5 9 8 8 9 11 10 6 4 4 1 4 2 1 5 6 3 9 10 11 15 18 17 16 16 16 15 15 14 14
39 38 38 38 36 27 11 10 14 10 14 17 13 17 21 9 4 4 4 1 4 2 1 1 1 0 2 2 5 5 4 1 2 2 4 11 7 3 5 7 8 8 5 6 7 5 3 7 9 9 6 5 6 5 10 12 6 5 6 7 5 5 5 6 7 4 4 4 5 7 6 4 5 5 2 6 8 13 16 17 18 17 16 16 16 16 15 14
40 38 38 37 32 22 10 13 20 15 14 12 14 22 17 2 4 3 1 3 3 3 2 1 1 1 2 3 3 5 4 4 2 1 3 3 3 2 3 3 6 6 3 2 6 5 4 3 5 6 6 7 7 5 9 13 8 5 8 7 7 6 4 2 2 4 4 2 7 10 12 8 5 5 4 6 10 16 16 14 14 15 15 16 16 16 16 14
42 39 38 35 29 18 7 12 18 12 6 9 18 19 7 1 3 3 4 4 3 3 1 1 1 2 3 2 2 4 4 5 3 2 2 2 4 2 2 2 3 3 2 2 3 4 5 3 2 3 4 6 6 3 5 8 6 7 6 5 4 3 4 4 5 3 4 4 7 9 9 6 6 6 6 11 15 17 16 14 15 17 18 17 16 16 16 15
43 39 37 35 28 16 12 14 14 9 7 11 15 9 2 1 1 4 4 3 2 2 0 1 2 2 3 1 1 3 4 3 3 3 4 4 4 4 5 5 4 3 3 4 3 4 4 5 5 4 3 5 7 4 2 2 1 6 5 5 5 1 2 2 1 1 3 6 6 5 8 3 7 9 9 12 14 14 14 16 16 18 19 18 17 17 15 13
43 40 36 31 24 19 21 22 19 16 15 12 8 4 5 2 4 6 4 2 2 1 1 2 3 3 2 4 2 4 2 4 4 3 4 5 4 6 5 5 7 7 3 4 4 3 3 5 5 4 4 3 8 6 3 2 2 6 6 6 5 3 2 2 3 0 2 6 4 5 9 4 6 7 10 13 17 16 15 17 14 12 16 18 17 16 14 14
44 39 34 30 24 20 18 18 20 17 12 5 2 4 3 4 5 5 7 6 4 3 2 1 6 7 2 1 3 3 1 3 4 4 3 4 4 5 4 3 5 7 4 3 4 4 4 5 6 6 4 4 7 7 7 6 6 6 5 6 6 5 5 4 4 3 4 3 2 3 5 5 4 5 8 12 13 13 13 13 8 6 10 14 12 12 13 14
42 36 32 26 18 13 10 10 14 9 8 4 4 3 5 5 3 3 5 6 2 3 4 4 6 7 4 3 3 1 1 3 1 4 3 4 5 5 5 5 6 5 5 4 3 3 5 7 7 6 4 5 7 6 7 7 4 4 3 5 5 7 6 3 4 6 5 2 1 2 3 5 5 6 7 4 4 7 11 9 6 7 9 10 9 11 12 13
41 35 26 17 11 12 11 9 8 13 13 5 4 5 5 4 4 3 3 3 1 0 4 5 2 2 4 3 3 3 2 2 2 1 2 3 4 5 5 5 7 8 7 6 3 2 4 6 7 5 4 5 8 7 7 6 5 3 3 4 5 6 7 4 2 2 3 2 2 2 3 3 2 7 9 4 5 9 9 8 10 10 8 10 10 11 12 13
38 30 18 12 13 14 13 8 11 17 10 4 5 7 4 4 5 5 3 1 2 2 3 2 1 2 2 2 2 3 4 3 3 2 1 2 3 5 6 4 5 10 9 7 4 3 4 4 6 6 8 8 7 7 5 6 7 5 4 7 3 3 3 3 2 1 3 2 4 2 5 4 2 4 7 3 7 12 12 11 10 7 8 11 12 12 13 15
30 19 11 12 15 13 8 6 17 16 6 3 6 5 3 5 4 4 3 0 1 2 3 2 2 2 1 1 2 2 4 4 3 2 1 2 3 5 7 4 5 10 11 9 5 3 5 4 7 6 10 6 4 6 6 6 4 3 4 6 5 3 1 1 3 2 2 3 3 3 4 4 5 5 5 5 11 14 15 12 8 8 11 12 12 13 14 15
19 8 4 9 12 8 3 14 16 8 3 5 7 4 4 5 4 4 4 1 2 2 2 4 3 1 2 2 3 2 2 1 2 1 1 2 3 4 6 5 5 9 12 11 6 3 5 4 6 4 6 3 3 5 8 7 2 3 3 4 2 3 5 3 3 4 4 4 3 2 2 3 6 7 8 11 14 15 15 12 9 11 14 14 13 13 14 14
9 1 3 5 9 10 12 12 6 2 3 5 5 4 3 4 4 5 5 3 2 2 3 4 3 3 3 2 3 3 1 3 3 1 2 3 3 4 5 5 4 6 11 12 9 4 3 4 5 4 2 2 2 5 9 8 5 3 3 4 2 1 3 2 1 3 4 4 4 3 3 5 7 6 10 14 14 14 15 13 12 13 14 15 13 12 12 13
4 0 3 2 11 13 10 4 1 2 4 2 3 3 3 2 3 4 4 5 3 3 3 4 4 4 2 2 2 2 1 2 3 3 3 3 3 4 5 6 6 4 6 8 8 5 4 4 4 4 2 4 6 7 7 9 9 8 6 6 6 4 3 2 4 1 2 3 4 5 4 7 7 6 10 13 12 12 13 12 12 12 13 13 11 12 14 14
2 1 5 2 8 5 5 0 2 1 2 2 3 3 3 3 2 3 4 3 3 4 3 3 4 4 3 4 3 3 3 2 4 4 4 5 6 5 6 7 7 6 5 6 9 9 5 4 5 6 5 6 9 7 5 8 7 6 6 6 7 6 6 6 6 3 1 1 2 4 3 6 7 6 9 10 8 7 8 9 10 11 10 9 9 11 13 13
1 5 11 7 6 2 5 1 3 3 3 4 4 3 2 2 2 3 3 1 2 3 2 3 4 5 5 5 5 5 5 4 5 7 5 4 5 7 9 9 6 5 5 5 7 7 4 3 5 5 4 4 7 5 1 3 4 3 4 4 6 7 7 7 5 4 4 3 2 2 3 6 6 4 5 7 5 5 7 8 11 10 6 6 8 10 11 11
2 5 8 6 7 5 2 2 3 3 3 4 4 4 3 3 3 3 3 3 2 3 2 3 4 5 5 5 5 6 6 4 4 5 4 4 4 7 10 9 6 5 6 6 6 6 4 3 5 4 3 4 5 5 4 3 4 4 4 4 6 7 6 3 2 3 5 6 7 5 4 6 6 4 3 5 5 6 8 8 9 9 6 6 8 8 9 11
4 3 4 5 4 3 3 2 1 2 3 3 3 4 3 3 4 6 7 5 5 5 3 4 5 5 5 5 5 7 7 5 3 3 1 2 4 6 5 5 4 5 9 11 10 8 6 4 5 7 6 6 7 6 6 5 3 3 3 6 8 9 10 5 2 4 6 5 6 6 5 6 7 5 5 6 5 6 8 7 7 8 7 7 8 9 10 10
3 1 3 5 2 0 1 1 2 1 2 3 3 4 3 3 4 5 7 6 6 7 5 5 6 4 5 6 6 7 7 6 5 3 3 3 3 4 4 6 4 5 8 10 10 6 3 4 7 10 11 10 9 9 7 5 5 5 6 8 9 9 11 9 5 5 7 4 4 6 6 6 7 7 8 8 6 7 7 6 8 9 9 9 10 9 8 7
1 2 2 3 3 2 2 2 4 2 2 2 2 3 3 3 3 2 4 4 5 5 4 5 7 5 5 6 5 6 7 6 6 6 6 6 5 4 6 7 5 4 6 4 10 7 3 4 7 11 14 14 14 13 9 7 7 8 9 10 10 9 10 10 7 7 7 6 5 8 6 8 9 9 10 10 8 7 7 9 10 10 9 8 7 6 6 6
1 2 2 2 3 2 1 3 5 4 4 3 2 3 3 3 3 2 2 3 3 3 3 3 7 9 9 8 6 5 5 5 7 7 6 6 4 3 5 6 5 3 7 2 5 5 4 5 6 8 12 15 15 12 9 8 7 8 9 10 10 9 10 12 11 10 10 8 10 8 9 10 10 10 12 12 11 12 12 11 9 7 6 6 7 8 9 9
2 2 3 3 2 3 4 6 6 6 5 4 3 3 3 4 3 2 2 3 5 3 4 2 5 8 8 8 5 4 5 6 7 7 6 6 3 0 2 5 5 3 7 5 2 1 3 5 5 9 11 14 14 12 9 9 8 8 8 9 9 9 12 13 12 10 10 10 10 8 12 13 10 11 13 12 9 9 6 5 6 6 8 9 10 11 12 11
2 1 3 3 3 5 5 4 4 5 4 4 4 3 3 3 2 5 4 3 3 3 1 2 6 6 6 7 7 7 9 9 8 7 6 6 5 2 1 3 3 4 7 3 1 1 2 4 2 6 6 10 11 11 10 10 10 11 13 12 9 8 8 9 8 5 5 8 7 4 8 10 9 8 9 5 3 5 5 6 8 8 8 9 10 11 13 12
4 4 4 3 4 4 3 3 2 2 3 3 2 2 4 4 4 7 7 6 6 5 2 3 7 7 5 7 7 7 6 4 6 7 5 5 6 3 4 3 1 4 7 2 1 2 1 2 2 4 2 6 7 9 11 9 8 10 13 13 10 7 6 7 6 6 7 8 6 4 5 9 9 6 5 3 6 8 8 9 8 8 8 11 13 14 12 10
6 5 3 3 3 3 3 3 2 2 2 1 2 4 4 6 7 8 6 4 6 7 2 5 7 5 4 6 4 2 5 7 8 8 5 6 8 5 3 2 1 1 3 3 2 1 2 1 2 2 3 6 7 8 8 5 4 6 9 11 11 9 7 5 4 6 8 8 7 7 8 9 6 6 6 5 7 9 10 10 9 9 10 12 12 11 9 9
Wind_Direction
352 353 352 352 352 351 352 351 351 350 350 350 350 351 351 351 350 350 349 347 344 343 342 343 343 336 331 329 326 326 325 320 314 310 276 272 278 277 273 271 273 271 264 247 196 168 162 185 181 158 151 161 186 208 184 190 148 85 95 116 147 183 191 176 177 180 155 158 163 167 156 149 153 141 114 104 104 115 104 71 83 57 79 114 127 139 148 152
351 351 351 351 351 351 350 349 349 349 349 348 348 347 347 348 348 347 347 345 343 340 340 341 342 335 329 327 324 326 326 318 310 292 276 284 287 276 271 271 266 263 252 228 197 173 149 160 169 134 119 123 293 311 11 238 135 105 116 132 220 197 200 180 170 173 155 159 161 158 157 163 160 142 144 132 133 128 99 96 99 86 93 113 129 142 151 152
350 349 350 351 351 351 349 348 348 348 347 347 346 345 344 344 345 344 343 344 341 338 338 338 339 334 327 325 324 329 326 319 306 280 284 301 305 267 262 277 265 252 242 226 217 194 167 163 159 117 81 80 295 331 31 291 190 157 122 150 239 196 180 173 166 176 166 154 150 156 157 162 179 155 151 141 139 141 135 151 134 128 138 135 139 148 155 155
348 347 348 350 351 350 348 347 347 347 346 345 344 343 342 340 341 341 340 340 338 336 334 335 336 329 324 323 325 329 329 322 284 263 330 354 358 340 301 308 289 242 228 215 191 175 158 135 126 98 79 82 309 352 148 249 212 152 147 187 228 172 155 181 170 170 160 154 150 152 149 152 183 166 149 140 134 176 190 186 164 152 153 147 149 154 159 158
347 346 346 348 350 349 348 347 346 345 344 343 342 341 340 339 338 337 337 336 335 333 331 332 331 326 323 322 324 329 338 339 285 288 357 335 322 312 293 292 285 234 206 181 154 144 137 109 89 68 75 123 335 34 239 229 145 148 226 209 195 154 161 184 164 153 151 151 144 149 156 160 166 163 164 150 145 209 199 181 161 153 153 151 153 155 159 160
346 346 346 346 348 347 347 347 345 344 343 342 341 339 338 337 335 334 333 332 331 329 327 328 327 324 318 318 324 329 4 288 296 307 320 319 311 302 293 283 261 211 180 164 153 141 127 91 89 93 89 123 143 174 249 248 132 185 265 223 182 164 154 158 149 148 149 150 155 160 157 151 147 160 175 163 177 219 160 151 151 149 149 149 151 154 159 163
344 344 346 346 346 346 346 346 345 344 342 341 339 338 337 335 335 332 329 328 327 326 324 324 324 316 312 322 324 350 111 253 283 295 315 324 310 298 302 281 220 183 170 156 140 137 131 108 119 141 115 103 177 210 252 300 204 208 261 241 190 174 151 148 149 154 156 159 163 151 142 159 162 161 174 196 277 153 125 133 142 143 146 147 152 159 163 167
344 344 345 345 344 344 345 344 345 344 342 340 338 336 335 335 333 330 326 324 323 322 319 320 319 304 308 328 333 334 240 257 281 297 341 349 331 315 314 248 180 171 166 159 149 142 129 128 154 148 123 163 183 206 235 349 285 207 239 240 176 163 149 145 148 154 157 156 146 139 153 171 162 138 158 207 89 120 123 130 137 141 147 152 159 162 165 169
343 342 343 345 344 344 343 344 344 344 342 339 336 335 334 334 332 328 323 320 321 318 314 316 309 278 301 337 73 328 266 252 287 317 358 355 346 337 320 165 163 160 151 159 162 152 140 155 184 163 157 174 163 214 268 30 277 213 222 190 143 140 144 143 145 152 151 147 142 146 155 149 123 113 125 194 128 125 127 133 141 146 153 160 164 166 166 170
342 340 341 343 343 343 343 344 344 343 342 339 335 334 334 333 330 326 321 318 319 313 310 310 272 233 259 162 97 301 271 256 270 291 333 345 347 348 308 158 161 152 134 152 162 157 167 174 187 161 140 135 168 203 128 134 267 202 142 94 118 127 137 140 141 147 140 148 156 150 147 139 139 126 141 176 141 134 134 139 149 152 158 164 167 170 169 173
342 340 339 341 342 343 344 344 344 343 340 337 335 333 333 331 327 324 319 317 316 309 306 294 223 199 184 143 158 249 268 272 275 287 311 321 326 327 296 167 163 149 129 139 169 177 183 172 162 120 113 151 186 174 206 227 269 129 116 72 74 106 116 133 136 145 135 143 160 136 118 130 153 202 180 163 148 144 144 148 157 158 165 167 168 171 172 180
341 339 338 339 341 341 343 344 343 343 340 336 333 333 333 329 325 321 318 316 313 306 296 262 192 176 163 133 209 247 271 280 284 289 294 299 306 307 290 189 173 161 142 139 181 195 198 178 129 95 175 170 137 78 256 244 94 122 112 84 69 89 110 145 137 150 147 142 149 120 95 151 208 244 158 149 149 146 146 154 161 164 168 169 170 171 176 185
340 339 338 338 340 341 342 342 343 342 339 335 333 333 332 326 322 321 319 315 309 301 282 210 177 171 160 215 239 267 283 283 284 283 281 281 286 279 247 230 194 184 169 159 180 200 212 212 141 123 173 132 167 265 15 40 78 86 78 95 111 89 133 193 147 150 141 149 158 132 104 213 224 228 149 151 151 145 149 161 166 168 171 174 174 173 181 187
339 338 337 338 340 341 341 342 343 342 338 335 333 334 330 324 323 323 321 316 316 313 250 163 160 155 151 255 273 291 292 283 281 280 279 264 251 232 215 219 211 204 200 193 194 213 221 216 157 112 189 128 180 337 28 26 47 88 73 70 115 122 184 212 178 152 132 173 175 123 121 217 227 202 160 160 158 152 158 167 170 173 174 177 179 178 186 189
338 337 337 339 340 340 340 341 342 341 338 335 334 334 327 323 325 327 326 329 9 76 136 135 149 142 103 279 284 296 281 275 288 297 297 246 206 194 206 201 203 208 212 211 203 210 207 192 137 119 229 334 79 55 35 25 19 94 101 86 265 151 185 215 215 172 146 185 200 63 143 226 235 187 166 164 164 160 163 169 173 177 178 180 184 184 189 192
337 337 338 341 342 341 340 340 341 341 337 335 336 333 327 325 327 328 327 26 69 115 125 128 161 152 293 280 290 305 271 280 317 330 326 271 221 198 156 161 178 189 200 208 197 205 183 161 146 150 143 66 92 84 65 67 29 324 99 151 198 167 179 206 219 202 150 172 200 267 169 227 225 175 170 168 170 167 166 173 177 179 183 183 184 189 190 192
336 337 337 341 343 342 339 339 340 340 336 336 337 333 328 326 324 324 25 81 91 138 122 112 155 148 265 270 294 301 292 314 326 326 321 307 256 204 144 123 132 155 160 153 176 199 206 156 160 165 75 73 117 97 93 139 173 241 60 132 203 199 181 182 171 197 156 170 199 161 146 220 186 163 169 174 174 173 173 179 182 183 188 186 187 192 192 193
336 336 336 339 343 341 339 338 339 339 336 336 339 336 332 322 311 314 118 70 82 148 113 54 139 130 265 256 278 284 296 310 316 312 306 309 248 203 163 119 106 111 105 62 134 160 157 358 102 120 61 75 120 101 125 191 182 180 167 149 206 234 206 194 178 181 169 180 207 153 150 210 163 159 172 179 177 180 185 184 185 188 189 190 191 195 195 197
336 336 335 337 341 340 338 338 339 339 334 336 345 341 336 338 324 188 134 45 53 189 256 244 168 184 269 262 263 285 299 304 309 302 291 310 188 183 151 109 103 104 115 125 196 183 142 70 76 138 163 154 161 150 167 195 180 177 172 144 169 209 229 210 200 183 166 173 204 183 178 174 163 172 177 179 180 187 194 188 187 192 192 194 195 199 201 201
336 336 335 337 340 339 337 337 338 338 335 341 351 349 3 1 348 328 327 308 238 238 252 247 220 233 273 279 276 297 307 297 282 258 231 47 133 139 108 79 83 82 134 160 187 204 143 142 174 181 182 178 178 177 171 169 160 158 152 143 171 189 240 238 280 232 167 166 203 186 169 172 173 181 181 178 180 190 199 195 195 195 195 199 198 202 203 207
335 335 335 337 340 338 336 336 337 337 336 347 354 1 93 19 25 327 320 281 249 232 243 245 228 235 253 260 264 314 340 300 252 250 256 250 131 123 286 91 104 145 209 177 163 125 140 176 203 198 188 179 177 175 147 132 141 146 155 175 192 189 220 237 261 232 178 166 200 159 154 194 188 183 182 174 181 196 200 196 198 198 198 202 201 205 205 210
335 334 336 338 339 337 334 337 337 335 341 355 356 26 136 52 31 321 304 292 272 224 235 245 236 248 250 252 256 244 64 289 282 284 253 197 152 154 224 117 134 199 237 163 118 132 167 208 217 203 180 153 139 149 134 129 146 142 136 157 199 201 190 215 173 177 186 186 224 166 159 214 209 185 187 184 192 202 200 198 199 196 199 203 204 206 206 208
334 334 336 337 338 335 334 337 336 334 355 348 336 288 134 51 353 343 260 285 287 227 227 237 232 243 245 256 246 196 175 212 251 278 190 147 163 171 154 133 159 179 203 186 160 155 183 236 220 183 151 136 113 126 130 118 136 139 129 142 205 216 171 209 191 156 152 56 177 149 125 313 227 180 207 206 204 205 200 205 207 202 204 206 206 205 202 202
334 334 335 336 337 335 335 337 338 347 345 335 309 189 119 352 349 0 128 268 288 258 225 219 220 224 234 249 195 167 190 194 197 252 183 150 147 155 156 153 155 169 207 196 169 165 211 251 188 145 152 156 138 133 134 130 172 200 177 151 163 207 179 168 152 142 85 12 109 110 54 313 203 182 216 216 212 215 203 204 212 214 215 214 212 210 206 203
334 335 335 337 338 335 335 339 348 337 334 329 250 152 36 340 345 9 108 332 283 281 254 218 232 231 229 210 171 167 180 196 199 214 177 162 157 138 174 161 144 188 204 174 159 184 235 251 142 138 165 163 144 159 165 158 173 226 220 184 178 185 166 133 130 128 107 279 233 128 104 288 239 202 214 202 206 215 206 205 211 214 216 216 215 213 212 207
334 336 336 338 337 337 340 346 327 328 329 322 162 170 328 333 340 67 124 32 288 282 299 203 185 226 225 167 159 144 102 245 221 198 180 174 168 144 158 194 131 191 183 154 155 204 230 205 145 146 159 160 158 181 197 165 144 216 226 194 183 162 140 141 142 136 150 218 219 169 184 269 287 233 213 196 206 213 211 215 215 211 212 211 210 212 211 206
334 336 337 337 337 341 344 311 315 325 321 205 258 305 320 330 344 153 111 19 298 271 249 254 181 180 223 177 156 129 160 262 214 185 187 178 174 140 159 189 142 177 164 137 190 231 196 179 164 155 142 151 167 192 211 160 137 229 221 174 169 150 147 157 152 160 179 136 95 176 170 271 286 252 204 186 205 218 222 225 219 213 212 209 209 210 208 205
334 335 336 335 334 336 326 290 309 312 276 298 301 309 325 335 71 139 65 18 273 272 164 249 223 155 134 171 170 166 218 232 150 210 192 172 174 121 173 193 162 176 174 146 204 253 194 184 180 168 155 168 188 199 190 157 156 237 198 152 159 156 160 165 163 180 165 108 237 237 161 162 267 280 196 175 199 221 226 225 220 213 210 208 208 208 207 207
334 334 333 333 330 331 325 280 281 285 303 307 306 320 331 336 147 104 61 196 270 305 162 235 277 250 35 113 199 239 285 259 186 241 158 163 178 122 176 193 157 175 192 161 196 246 225 196 178 163 170 195 206 203 170 162 195 223 145 109 84 99 130 156 166 160 109 135 216 222 187 196 260 276 182 166 202 224 227 225 220 214 209 207 207 207 207 206
333 331 331 332 326 324 327 280 276 297 314 310 320 327 328 325 141 86 109 220 284 286 237 333 357 315 55 100 240 264 271 287 285 76 80 140 170 123 163 158 124 155 188 162 194 232 272 234 164 161 184 188 190 195 173 177 185 145 113 86 54 49 62 76 93 99 105 202 235 214 194 196 247 264 189 179 207 215 220 226 218 211 210 208 207 206 205 203
332 329 329 326 315 308 306 282 290 311 311 309 326 327 325 102 98 132 199 239 285 279 292 357 312 349 37 113 247 255 230 274 307 110 91 88 122 123 115 92 89 136 173 201 216 275 290 265 210 207 199 156 148 176 197 201 177 121 102 102 93 22 27 37 13 62 138 237 252 218 190 190 240 257 220 212 219 213 212 221 213 204 206 207 207 205 202 200
331 329 326 320 309 281 248 269 288 288 278 307 327 337 98 125 240 182 225 299 301 254 138 242 275 342 359 29 232 232 199 228 257 154 147 138 148 177 175 177 174 164 211 216 224 294 272 236 249 269 247 146 137 158 200 260 136 115 110 111 123 285 16 70 289 130 179 243 255 174 149 182 246 251 239 228 234 227 217 221 215 202 201 204 204 204 201 196
330 328 324 319 308 273 264 277 272 262 275 300 329 23 99 169 226 198 211 257 232 237 120 228 300 333 357 12 319 252 210 209 227 192 161 152 164 200 208 198 170 164 192 194 195 233 272 269 251 241 268 185 151 156 170 217 167 146 149 142 146 157 134 194 236 27 217 255 281 136 148 205 270 263 242 228 233 231 224 228 222 203 201 204 203 199 195 194
330 329 323 318 307 289 288 285 269 261 264 276 47 72 130 207 234 210 210 227 247 330 4 276 328 335 354 15 269 259 297 250 206 156 153 134 153 207 231 233 181 156 137 157 186 185 199 252 225 199 232 205 175 174 163 153 160 177 167 146 157 161 159 197 199 185 208 239 335 110 153 196 220 249 240 229 233 227 229 240 229 198 205 205 202 194 192 196
331 331 325 318 311 314 325 287 266 234 184 147 92 140 194 205 225 211 214 232 268 327 317 328 342 330 318 288 277 348 80 273 228 127 154 151 171 203 197 206 198 158 138 175 212 179 190 238 244 232 224 179 182 188 147 128 159 209 148 126 180 184 164 178 182 181 178 138 80 171 206 221 221 284 291 288 294 239 232 239 207 204 204 187 193 195 192 197
334 334 328 320 320 331 328 289 234 175 165 134 116 197 214 203 201 193 202 209 163 224 323 342 354 270 298 309 318 20 49 302 346 76 193 180 193 206 199 212 196 175 170 178 208 180 180 247 261 242 235 199 185 179 164 164 179 182 142 175 211 175 144 146 199 180 122 156 242 191 224 271 306 303 294 297 298 266 247 232 209 208 186 172 193 196 191 196
335 334 323 313 326 327 313 279 182 167 162 132 170 210 221 210 203 196 203 164 139 116 74 14 277 209 261 305 302 349 13 351 356 8 265 224 222 204 206 239 192 184 190 181 207 205 163 253 267 204 220 239 193 171 200 200 160 137 183 198 176 112 106 116 166 16 67 206 265 196 198 217 161 276 292 269 247 255 255 241 219 189 167 185 201 195 191 195
327 321 300 306 328 328 304 199 166 161 140 149 205 228 204 216 223 203 217 128 100 71 92 172 244 213 208 271 279 324 18 355 338 4 292 242 253 212 193 215 198 193 198 189 214 227 163 241 284 210 206 231 151 161 235 246 177 141 185 175 141 151 206 128 166 175 136 202 268 281 236 224 196 225 272 236 222 235 246 245 223 186 186 198 201 195 192 192
325 316 304 330 345 349 161 160 158 150 114 168 207 231 205 227 251 214 208 124 124 138 173 213 223 246 248 217 250 297 39 282 265 332 247 218 255 233 191 204 221 202 195 184 190 207 165 205 271 238 203 199 121 167 215 235 217 84 118 155 152 167 173 174 166 164 181 198 224 266 266 252 228 218 218 219 219 225 233 239 230 209 202 202 200 193 189 190
338 310 303 357 45 78 120 144 155 150 164 183 201 218 213 229 256 241 218 185 172 190 206 214 203 222 258 245 254 270 177 214 221 178 229 221 252 264 216 203 226 207 194 188 188 191 167 192 239 263 241 188 198 205 201 197 175 139 164 184 194 122 139 184 183 134 152 171 178 199 225 252 244 208 203 217 221 218 219 222 227 222 211 208 201 186 183 188
334 319 293 72 101 98 102 126 243 183 182 219 208 213 249 240 259 280 247 199 197 223 203 204 208 207 234 262 266 272 245 230 215 195 232 230 223 262 236 200 195 187 179 188 200 201 185 186 207 230 223 205 233 232 194 177 171 172 187 188 179 164 135 188 248 246 126 160 174 178 210 255 249 197 200 217 219 220 219 215 223 228 218 210 196 181 184 187
300 295 293 214 127 76 27 233 251 234 200 234 215 217 252 246 239 272 260 201 192 229 219 216 222 210 226 235 215 228 242 237 221 205 219 228 209 223 245 221 196 172 152 186 211 200 167 151 188 216 225 221 238 239 186 175 176 179 203 196 180 176 161 181 221 238 217 206 142 139 198 263 259 205 203 218 220 231 234 221 228 238 227 208 192 184 187 190
190 285 295 263 195 287 342 263 268 295 234 245 265 259 252 253 243 241 255 255 201 220 216 214 213 204 221 221 196 205 216 214 216 205 214 244 220 220 243 245 222 185 169 201 216 197 158 141 182 223 273 268 266 282 237 162 150 185 241 200 172 189 189 186 191 181 191 200 143 140 234 265 272 245 220 227 225 236 238 223 228 237 230 199 191 189 189 194
274 275 296 276 217 227 259 219 254 271 261 277 283 271 257 242 237 232 242 246 213 206 225 232 216 207 218 210 197 208 203 202 232 227 219 230 232 241 248 248 237 201 192 202 187 180 202 188 169 192 245 257 264 283 273 229 175 195 222 185 179 185 163 137 105 158 214 211 169 168 224 250 273 310 288 238 209 226 241 229 228 234 221 196 191 193 194 195
307 249 261 290 251 206 206 219 240 267 295 314 290 272 259 235 234 224 220 228 225 209 221 247 230 216 219 208 214 226 211 197 234 278 263 218 253 271 269 271 253 213 220 217 183 168 195 192 167 182 203 216 217 222 226 213 193 219 206 182 190 181 165 161 130 171 228 230 165 171 210 247 279 302 284 248 202 220 244 232 228 230 214 198 194 197 201 195
334 281 278 306 324 70 263 324 40 5 328 344 306 270 231 233 260 226 207 222 234 216 214 241 238 236 240 226 231 243 230 211 214 253 277 257 263 271 293 314 284 233 247 226 177 143 156 192 189 191 200 209 209 216 213 165 158 207 211 191 193 190 180 169 144 177 202 178 179 211 199 208 254 259 253 249 220 223 239 220 219 223 209 202 201 199 196 187
309 276 323 335 326 348 358 19 43 22 321 330 304 281 250 242 272 257 209 216 230 212 208 233 225 218 223 216 222 238 229 223 224 234 247 246 255 276 301 308 263 258 309 222 169 136 114 212 213 201 208 215 212 212 199 165 173 195 199 199 199 193 178 169 183 199 166 142 230 252 196 185 226 230 228 237 224 218 226 214 215 220 209 196 184 173 173 175
279 275 2 5 302 305 335 338 353 337 294 281 273 281 287 265 261 281 265 280 286 205 183 237 228 218 218 209 210 224 214 221 237 236 230 230 247 295 318 309 265 297 3 5 180 144 148 214 213 200 222 230 225 220 194 176 198 198 191 201 199 186 175 181 203 199 159 171 228 227 182 193 224 224 219 224 212 205 210 207 204 204 189 169 158 166 181 187
304 296 346 3 306 284 290 302 311 304 286 280 264 258 278 274 268 308 313 315 315 247 190 240 247 234 234 224 215 219 204 203 227 234 221 215 216 84 348 314 292 347 26 11 301 129 160 228 207 187 223 238 232 231 205 185 212 224 214 213 204 191 185 192 210 200 179 209 231 196 187 208 221 213 217 222 211 199 191 174 174 181 181 177 175 181 191 194
342 300 330 347 308 285 282 282 288 297 296 276 253 267 308 292 314 350 322 259 271 285 238 259 276 282 271 240 221 221 215 206 215 226 216 209 210 168 175 249 272 343 5 1 302 37 166 251 231 163 214 247 235 231 221 200 209 228 236 233 219 202 194 203 217 194 181 239 254 175 186 226 242 224 219 214 147 139 149 170 188 191 181 176 182 193 198 195
321 283 292 315 300 287 286 288 289 301 298 267 247 338 339 319 349 343 304 232 220 249 292 317 298 304 289 244 223 223 237 243 246 253 250 239 239 208 181 201 211 345 341 324 294 354 171 235 342 94 185 257 235 218 224 210 203 232 247 245 229 205 197 208 204 179 180 208 214 159 185 237 248 224 198 157 142 162 187 194 194 192 179 178 191 201 198 189
331 301 288 289 288 289 299 307 303 265 267 288 358 356 321 297 323 329 300 264 239 231 249 345 317 310 296 270 251 277 307 297 269 264 266 272 283 274 190 164 143 223 289 300 311 329 131 127 4 107 190 265 247 208 202 181 184 244 249 235 222 208 206 220 212 200 192 172 166 188 215 234 226 176 174 190 180 188 204 202 194 194 189 187 194 194 185 182